Temp
74 73 71 70 61 56 51 58 67 65 63 68 68 68 64 65 63 54 69 73 74 72 74 77 79 79 79 79 80 79 79 79 79 79 80 80 80 80 80 80 80 80 81 80 81 81 81 81 82
71 74 70 64 54 49 51 60 61 67 70 70 71 68 66 62 70 67 68 73 73 73 73 76 79 79 79 79 79 79 79 79 79 79 79 79 79 79 79 79 80 80 81 81 81 81 81 81 80
76 76 67 58 51 49 51 63 63 69 73 71 67 72 69 64 71 70 72 73 72 71 73 78 79 79 79 79 79 78 78 78 79 78 78 78 79 79 79 79 79 79 79 79 79 79 78 79 80
74 71 67 57 52 54 61 64 67 68 69 71 68 64 72 76 73 72 74 73 70 70 72 77 79 79 79 79 78 78 78 78 77 77 76 76 77 78 77 78 78 78 80 78 78 78 77 77 77
71 65 55 53 52 59 62 68 68 66 66 66 67 64 65 71 74 73 73 74 70 69 70 73 79 79 79 79 78 78 77 77 76 76 76 75 75 75 76 76 76 77 78 78 78 78 77 77 73
66 63 54 50 55 62 64 69 69 66 67 67 66 65 64 72 71 72 73 71 71 69 69 73 79 79 79 78 78 77 76 76 75 75 74 74 73 74 74 74 75 75 76 75 75 74 75 75 74
64 58 52 52 57 59 65 69 68 66 65 67 71 61 63 69 71 72 70 70 69 69 68 68 70 76 78 77 77 76 76 75 74 73 72 71 72 71 72 72 73 73 73 73 72 72 72 71 72
65 60 52 52 56 58 67 69 70 69 66 77 75 60 59 68 72 71 70 68 68 68 68 66 66 68 69 71 76 75 74 74 73 71 70 68 67 68 70 69 71 71 71 71 71 70 70 69 69
67 58 53 56 59 61 66 66 69 76 71 72 74 70 72 72 72 69 66 66 66 69 67 67 67 67 68 70 71 70 72 70 67 65 67 59 57 59 61 68 68 68 68 69 69 68 68 67 66
64 56 60 66 67 64 68 68 69 69 68 68 68 72 73 71 69 66 65 63 64 65 66 65 66 67 67 69 61 60 63 58 57 57 55 55 54 60 61 64 65 65 65 66 66 66 65 63 61
62 61 66 70 70 71 68 67 72 66 62 67 65 67 70 69 68 66 66 66 64 65 66 66 66 66 65 63 60 58 57 56 55 55 54 53 54 53 54 55 55 55 60 57 59 58 59 59 59
62 70 71 69 71 69 68 70 67 69 68 74 72 71 70 68 67 67 67 66 65 65 65 66 66 64 62 61 58 57 57 55 54 54 53 52 51 51 52 53 53 53 53 54 55 56 56 57 57
63 71 72 72 70 68 72 67 67 68 72 74 73 71 69 69 68 69 69 67 64 64 65 65 64 62 60 59 57 56 54 53 53 53 53 52 51 50 51 51 52 53 53 53 54 55 55 55 56
68 69 69 69 68 68 69 67 71 69 73 71 71 69 69 69 68 67 66 65 64 64 64 64 63 62 60 57 55 53 53 53 53 53 53 52 51 50 51 51 52 52 52 53 53 53 54 54 55
67 64 68 67 66 66 72 63 66 71 73 70 69 70 70 69 69 68 68 65 65 64 63 63 61 60 58 56 55 53 54 53 52 52 53 53 51 51 50 51 51 51 52 53 53 53 54 54 55
64 62 57 63 69 67 69 58 68 71 70 68 70 71 70 68 69 70 69 66 64 64 62 64 67 60 57 55 54 54 53 52 52 52 53 54 54 52 51 51 51 52 52 52 52 52 52 52 52
62 54 56 61 69 68 66 60 69 70 70 67 69 69 68 67 69 69 69 66 64 62 61 60 60 58 56 55 53 52 52 52 52 52 53 53 55 54 51 51 51 51 51 52 50 51 50 51 52
57 56 55 59 66 65 62 63 65 69 69 67 68 68 67 66 66 67 65 64 62 61 60 60 58 55 54 53 52 51 51 51 52 52 53 54 54 54 52 52 51 51 51 51 51 49 51 51 51
63 62 62 62 67 64 64 62 64 67 69 64 65 65 64 65 66 65 63 62 60 59 57 59 57 55 56 53 51 50 50 51 51 52 54 54 54 54 52 52 51 51 50 50 50 49 49 50 51
63 61 60 64 66 64 61 62 66 67 68 67 66 65 64 63 62 61 61 61 60 57 57 58 57 56 56 53 51 51 51 51 51 51 53 54 53 53 53 51 51 51 50 50 50 49 48 48 50
61 62 60 61 63 61 58 59 60 64 68 69 67 68 66 63 60 59 58 58 58 56 56 57 57 57 55 54 51 50 50 50 51 51 52 52 53 54 53 52 52 51 50 49 49 49 48 46 49
57 69 66 63 59 54 58 49 57 58 62 64 67 66 64 64 62 59 59 58 57 57 58 56 56 56 54 51 51 50 49 48 49 49 50 52 53 53 54 53 53 51 50 49 49 51 49 47 47
64 68 66 63 55 54 53 49 57 56 57 62 65 67 65 64 61 59 60 59 59 58 56 56 57 55 53 51 50 49 48 48 49 49 51 51 52 53 53 53 52 51 50 50 50 49 49 48 47
70 64 59 53 52 45 54 51 54 55 62 62 64 67 64 64 61 62 61 59 58 58 56 56 55 54 51 51 49 49 49 48 49 50 50 51 51 52 52 53 51 51 50 50 49 49 49 49 48
62 55 46 44 44 46 49 48 58 63 64 64 63 64 64 63 60 60 58 57 56 55 56 56 55 52 51 51 50 49 49 50 51 50 50 50 50 51 51 51 51 50 50 50 49 49 49 49 48
58 57 47 41 41 48 49 46 57 63 65 64 65 62 61 60 60 59 58 58 56 57 57 57 55 53 51 51 50 50 50 51 51 51 51 50 50 50 51 51 51 51 50 49 48 49 49 49 49
56 53 58 48 44 43 47 52 62 61 60 61 60 59 58 59 59 59 59 58 57 57 57 57 55 52 51 51 50 49 50 51 51 51 51 50 51 52 53 52 51 50 49 48 47 47 49 48 48
63 64 53 46 40 38 44 47 51 59 60 59 58 57 57 59 59 58 58 58 57 58 58 57 55 53 52 51 51 51 51 51 52 51 52 51 51 52 51 52 51 50 49 48 47 47 49 49 49
57 54 50 49 46 42 40 46 58 61 61 60 61 58 58 58 58 59 59 58 58 59 59 56 53 52 51 51 51 50 51 52 52 52 52 52 51 51 52 52 52 51 49 48 47 48 50 49 49
60 58 54 46 46 44 43 48 64 62 63 61 60 59 58 59 60 60 59 57 57 57 56 54 53 53 53 52 51 50 51 51 52 52 52 52 51 52 52 52 52 51 50 48 47 48 49 49 49
MSLP
1010.88 1011.20 1011.61 1011.78 1012.87 1013.51 1014.36 1014.45 1014.00 1014.01 1014.35 1014.61 1014.54 1014.81 1015.65 1016.41 1016.80 1017.93 1017.83 1017.78 1017.69 1017.77 1017.54 1017.59 1017.61 1017.56 1017.58 1017.75 1017.66 1017.79 1017.78 1017.78 1017.74 1017.67 1017.65 1017.63 1017.61 1017.70 1017.68 1017.73 1017.69 1017.72 1017.64 1017.63 1017.67 1017.63 1017.59 1017.59 1017.62
1010.94 1011.55 1011.88 1012.32 1013.42 1014.68 1015.09 1014.55 1014.18 1014.03 1014.49 1014.43 1014.70 1015.24 1015.74 1016.71 1016.82 1017.42 1017.79 1017.93 1017.96 1018.06 1018.01 1017.95 1017.88 1017.85 1017.91 1018.07 1018.17 1018.22 1018.23 1018.23 1018.21 1018.12 1018.07 1018.12 1018.15 1018.17 1018.21 1018.13 1018.06 1017.96 1017.94 1017.87 1017.82 1017.86 1017.86 1017.87 1017.93
1010.90 1011.24 1012.02 1012.76 1014.28 1014.86 1014.75 1014.46 1014.24 1014.24 1014.28 1014.33 1014.93 1015.21 1015.80 1016.84 1017.03 1017.43 1017.75 1018.08 1018.22 1018.38 1018.26 1018.16 1018.21 1018.30 1018.37 1018.38 1018.44 1018.52 1018.61 1018.56 1018.52 1018.66 1018.76 1018.70 1018.57 1018.53 1018.52 1018.47 1018.42 1018.39 1018.27 1018.15 1018.06 1018.18 1018.18 1018.13 1018.08
1010.90 1011.55 1012.20 1012.92 1014.27 1014.40 1014.06 1014.14 1014.16 1014.41 1014.58 1014.75 1015.23 1015.81 1016.20 1016.23 1016.87 1017.41 1017.94 1018.15 1018.49 1018.60 1018.57 1018.47 1018.59 1018.69 1018.71 1018.75 1018.86 1018.96 1019.04 1019.11 1019.20 1019.23 1019.30 1019.29 1019.15 1018.92 1018.91 1018.82 1018.75 1018.61 1018.32 1018.32 1018.28 1018.25 1018.28 1018.35 1018.26
1011.03 1011.80 1012.71 1013.60 1014.19 1013.94 1013.77 1013.76 1014.05 1014.49 1014.82 1015.14 1015.37 1016.17 1016.70 1017.24 1017.23 1017.72 1018.18 1018.37 1018.67 1018.83 1018.85 1018.87 1018.94 1018.93 1018.91 1018.98 1019.12 1019.24 1019.39 1019.55 1019.67 1019.71 1019.72 1019.67 1019.58 1019.51 1019.40 1019.33 1019.17 1018.92 1018.57 1018.40 1018.34 1018.19 1018.25 1018.36 1018.71
1011.39 1012.00 1012.93 1013.71 1013.99 1013.73 1013.54 1013.49 1013.84 1014.28 1014.84 1015.26 1015.66 1016.22 1017.34 1017.61 1017.52 1018.14 1018.43 1018.66 1018.86 1019.13 1019.17 1019.19 1019.26 1019.32 1019.34 1019.34 1019.44 1019.66 1019.86 1020.02 1020.13 1020.24 1020.27 1020.21 1020.09 1019.93 1019.82 1019.69 1019.57 1019.44 1019.19 1019.07 1018.94 1018.79 1018.64 1018.50 1018.55
1011.33 1012.21 1013.01 1013.28 1013.47 1013.51 1013.38 1013.33 1013.73 1014.24 1014.73 1015.04 1015.29 1016.42 1017.57 1017.80 1017.91 1018.21 1018.55 1018.77 1019.15 1019.36 1019.45 1019.62 1019.64 1019.53 1019.55 1019.64 1019.74 1019.92 1020.13 1020.32 1020.50 1020.66 1020.75 1020.71 1020.58 1020.45 1020.23 1020.07 1019.79 1019.75 1019.68 1019.60 1019.51 1019.34 1019.20 1019.09 1018.95
1010.97 1012.05 1012.98 1013.01 1013.13 1013.17 1013.16 1013.30 1013.44 1013.73 1014.51 1014.54 1015.00 1016.16 1017.40 1017.55 1017.95 1018.40 1018.92 1019.29 1019.43 1019.46 1019.54 1019.81 1019.92 1019.91 1019.96 1020.09 1020.21 1020.39 1020.58 1020.77 1020.96 1021.15 1021.23 1021.31 1021.21 1020.98 1020.65 1020.56 1020.23 1020.14 1019.95 1019.88 1019.76 1019.65 1019.48 1019.36 1019.20
1010.71 1011.77 1012.72 1012.72 1012.75 1012.87 1012.93 1013.15 1013.68 1013.67 1014.26 1014.57 1014.87 1015.42 1016.02 1017.22 1017.95 1018.71 1019.42 1019.75 1019.80 1019.82 1019.85 1019.89 1020.00 1020.02 1020.03 1020.34 1020.72 1020.93 1021.13 1021.32 1021.59 1021.80 1021.79 1021.95 1021.80 1021.56 1021.26 1020.90 1020.76 1020.62 1020.44 1020.23 1020.03 1019.85 1019.69 1019.54 1019.45
1010.71 1011.70 1011.59 1011.21 1011.43 1012.12 1012.66 1012.83 1013.50 1013.96 1014.50 1014.85 1015.27 1015.59 1016.13 1017.27 1018.06 1018.65 1019.23 1019.62 1019.88 1020.05 1020.12 1020.19 1020.02 1019.93 1020.13 1020.74 1021.35 1021.72 1021.93 1022.11 1022.22 1022.27 1022.31 1022.27 1022.15 1021.66 1021.60 1021.32 1021.15 1020.93 1020.86 1020.63 1020.48 1020.23 1020.03 1019.85 1019.69
1010.38 1010.59 1010.47 1010.40 1010.72 1011.08 1012.19 1012.86 1013.05 1013.81 1014.67 1014.42 1015.01 1015.86 1016.36 1017.17 1017.99 1018.54 1019.11 1019.34 1019.57 1019.94 1020.17 1020.22 1020.10 1020.08 1020.35 1021.04 1021.63 1022.03 1022.23 1022.46 1022.59 1022.76 1022.91 1022.86 1022.68 1022.49 1022.27 1022.06 1021.80 1021.55 1021.25 1021.20 1020.96 1020.72 1020.45 1020.17 1019.84
1009.95 1009.64 1009.90 1010.00 1010.41 1011.16 1011.93 1012.58 1013.17 1013.40 1013.31 1013.57 1014.66 1015.25 1016.09 1017.05 1017.74 1018.36 1018.97 1019.47 1019.84 1020.16 1020.20 1020.19 1020.35 1020.49 1020.96 1021.35 1021.85 1022.33 1022.40 1022.70 1022.95 1023.04 1023.13 1023.13 1023.07 1022.98 1022.82 1022.52 1022.30 1022.08 1021.88 1021.57 1021.23 1020.92 1020.68 1020.36 1020.02
1009.70 1009.44 1009.76 1009.88 1010.34 1010.97 1011.66 1012.47 1013.04 1013.22 1013.16 1013.61 1014.69 1015.88 1016.47 1017.05 1017.66 1018.22 1018.71 1019.30 1019.78 1020.23 1020.31 1020.49 1020.43 1020.84 1021.36 1021.75 1022.14 1022.43 1022.78 1022.93 1022.90 1022.96 1023.10 1023.14 1023.21 1023.24 1023.04 1022.78 1022.45 1022.17 1021.99 1021.79 1021.43 1021.01 1020.66 1020.37 1020.09
1009.27 1009.69 1010.36 1010.74 1011.04 1011.42 1011.83 1012.83 1013.02 1012.96 1013.34 1014.03 1014.86 1015.61 1016.30 1016.78 1017.29 1018.07 1018.66 1019.21 1019.62 1019.79 1020.06 1020.33 1020.56 1020.77 1021.26 1021.79 1022.24 1022.64 1022.96 1023.09 1023.02 1023.01 1023.09 1023.07 1023.28 1023.36 1023.28 1023.04 1022.75 1022.41 1022.15 1021.85 1021.57 1021.25 1020.89 1020.49 1020.15
1009.59 1010.25 1010.67 1011.26 1011.45 1011.80 1011.86 1013.12 1012.75 1012.72 1013.18 1013.86 1014.57 1015.12 1015.80 1016.25 1016.84 1017.16 1017.81 1018.68 1019.04 1019.44 1020.06 1020.65 1020.59 1020.62 1021.11 1021.87 1022.34 1022.73 1022.71 1022.99 1023.28 1023.13 1023.21 1023.19 1023.17 1023.28 1023.37 1023.25 1022.89 1022.58 1022.24 1021.84 1021.50 1021.19 1020.82 1020.50 1020.04
1010.03 1010.55 1011.27 1011.25 1011.22 1011.74 1011.80 1012.09 1012.33 1012.47 1012.82 1013.45 1013.89 1014.35 1015.04 1015.65 1016.16 1016.87 1017.51 1018.26 1019.00 1019.56 1020.07 1020.01 1020.21 1021.28 1021.71 1022.09 1022.29 1022.81 1023.04 1023.00 1023.43 1023.55 1023.44 1023.28 1023.20 1023.16 1023.20 1023.23 1023.03 1022.65 1022.23 1022.04 1021.77 1021.42 1020.97 1020.60 1020.23
1010.56 1011.02 1011.22 1011.41 1011.13 1011.55 1011.99 1011.91 1011.21 1012.08 1012.56 1013.07 1013.32 1013.63 1014.44 1015.54 1016.26 1016.79 1017.30 1017.99 1018.82 1019.73 1020.20 1020.67 1020.99 1021.27 1022.15 1022.37 1022.39 1022.70 1023.06 1023.18 1023.38 1023.72 1023.67 1023.46 1023.37 1023.34 1023.38 1023.46 1023.21 1022.85 1022.54 1022.21 1022.00 1021.57 1021.31 1020.69 1020.20
1010.30 1010.73 1010.81 1010.75 1011.04 1011.50 1011.95 1011.51 1011.77 1011.83 1012.31 1012.48 1012.97 1013.65 1014.19 1014.75 1015.36 1016.17 1017.07 1018.08 1018.86 1019.74 1020.13 1020.83 1021.37 1021.48 1022.12 1022.73 1022.67 1023.17 1023.19 1023.25 1023.29 1023.44 1023.55 1023.37 1023.30 1023.13 1023.23 1023.26 1023.08 1022.82 1022.54 1022.25 1021.98 1021.75 1021.24 1020.83 1020.33
1009.70 1010.00 1010.12 1010.01 1010.06 1010.87 1010.99 1011.34 1011.74 1011.91 1012.40 1012.70 1012.97 1013.51 1014.02 1014.49 1015.18 1015.80 1016.71 1017.40 1018.42 1019.32 1019.98 1020.29 1020.78 1021.55 1022.25 1022.89 1023.06 1023.41 1023.44 1023.46 1023.29 1023.17 1023.36 1023.33 1023.33 1023.15 1023.13 1023.13 1023.02 1022.83 1022.65 1022.38 1022.19 1021.89 1021.46 1020.76 1020.28
1009.32 1009.74 1009.93 1009.77 1009.87 1010.72 1010.86 1011.05 1011.20 1011.43 1011.00 1011.10 1011.99 1012.82 1013.16 1014.27 1015.30 1016.45 1017.05 1017.57 1018.21 1018.89 1019.37 1020.12 1020.89 1021.58 1022.02 1022.08 1022.47 1023.05 1023.31 1023.58 1023.58 1023.49 1023.31 1023.28 1023.30 1023.19 1023.11 1023.19 1023.07 1023.00 1022.76 1022.36 1022.10 1022.02 1021.71 1021.21 1020.58
1009.20 1009.21 1009.37 1009.76 1010.30 1010.97 1011.42 1011.37 1011.12 1010.78 1010.72 1011.19 1011.71 1011.59 1012.81 1013.47 1014.78 1016.30 1017.42 1018.14 1018.68 1019.23 1019.51 1020.28 1021.00 1021.61 1021.65 1021.67 1022.31 1023.10 1023.32 1023.55 1023.55 1023.59 1023.38 1023.13 1023.32 1023.20 1022.98 1023.03 1022.97 1022.92 1022.83 1022.59 1022.28 1022.07 1021.85 1021.58 1020.82
1008.83 1008.45 1008.97 1009.73 1010.46 1011.24 1011.22 1011.73 1011.14 1010.79 1010.50 1010.92 1010.68 1011.41 1012.07 1013.65 1015.32 1016.50 1017.28 1018.46 1018.78 1019.17 1019.65 1020.37 1021.20 1021.51 1021.30 1021.53 1022.07 1022.84 1023.46 1023.70 1023.58 1023.60 1023.58 1023.16 1023.27 1023.17 1023.10 1023.03 1022.97 1022.76 1022.69 1022.53 1022.21 1021.92 1021.81 1021.61 1021.08
1007.98 1008.15 1009.09 1009.68 1010.84 1011.71 1012.25 1012.47 1010.94 1011.06 1010.75 1010.09 1009.55 1010.24 1011.69 1012.93 1013.71 1014.19 1014.90 1016.38 1018.02 1019.21 1019.80 1020.51 1021.23 1021.32 1021.31 1021.45 1021.95 1022.92 1023.52 1023.64 1023.37 1023.45 1023.20 1023.31 1023.42 1023.27 1023.12 1022.99 1022.87 1022.68 1022.52 1022.30 1022.11 1021.85 1021.71 1021.52 1021.23
1007.65 1008.76 1009.98 1011.00 1011.94 1012.71 1012.13 1012.40 1010.45 1010.40 1009.13 1008.91 1008.89 1009.87 1010.99 1011.80 1013.38 1014.81 1016.30 1017.20 1018.25 1019.22 1020.01 1020.55 1020.85 1021.11 1021.29 1021.49 1021.97 1022.86 1023.21 1023.51 1023.28 1023.46 1023.35 1023.57 1023.59 1023.30 1023.14 1023.01 1022.88 1022.70 1022.58 1022.38 1022.09 1021.82 1021.60 1021.42 1021.15
1007.87 1009.41 1011.00 1012.19 1012.86 1012.96 1012.43 1012.62 1009.86 1008.47 1008.44 1008.34 1008.82 1009.47 1010.65 1011.95 1013.53 1014.79 1015.78 1016.93 1017.94 1019.13 1019.80 1020.21 1020.59 1021.01 1021.43 1021.52 1022.15 1022.83 1022.90 1023.20 1023.00 1023.19 1023.39 1023.66 1023.55 1023.39 1023.14 1023.09 1022.84 1022.75 1022.66 1022.33 1022.04 1021.73 1021.47 1021.20 1020.97
1007.86 1008.88 1010.55 1011.71 1012.91 1013.01 1012.84 1011.82 1008.98 1008.17 1007.82 1008.08 1008.43 1009.44 1010.75 1012.15 1013.25 1014.24 1015.17 1016.14 1017.24 1018.17 1019.32 1019.96 1020.60 1020.79 1021.53 1021.54 1022.29 1022.70 1022.90 1022.83 1022.80 1022.93 1023.35 1023.57 1023.52 1023.25 1023.06 1022.91 1022.77 1022.65 1022.48 1022.26 1022.05 1021.73 1021.34 1021.00 1020.76
1007.85 1008.85 1009.58 1011.23 1012.85 1013.18 1012.42 1010.98 1008.89 1008.00 1008.05 1008.40 1009.06 1009.98 1010.95 1011.79 1012.75 1013.84 1015.07 1015.90 1016.87 1017.68 1018.60 1019.28 1020.06 1020.49 1021.33 1021.45 1022.12 1022.51 1022.76 1022.56 1022.73 1022.87 1023.23 1023.40 1023.30 1023.02 1022.84 1022.73 1022.70 1022.54 1022.40 1022.25 1022.06 1021.75 1021.38 1020.99 1020.66
1006.73 1007.87 1009.73 1011.39 1012.69 1013.28 1012.40 1011.35 1009.37 1008.21 1007.68 1008.23 1009.11 1009.69 1010.82 1011.75 1012.65 1013.70 1014.63 1015.60 1016.45 1017.47 1018.39 1019.19 1019.73 1020.45 1020.85 1021.45 1021.92 1022.28 1022.47 1022.32 1022.54 1022.72 1022.96 1023.12 1023.06 1022.94 1022.72 1022.61 1022.57 1022.46 1022.41 1022.25 1022.03 1021.68 1021.34 1021.04 1020.57
1007.09 1007.79 1009.41 1010.79 1011.78 1012.30 1012.11 1010.56 1007.73 1007.24 1007.20 1007.75 1007.85 1009.01 1010.27 1011.31 1012.19 1013.18 1014.26 1015.32 1016.18 1017.20 1018.03 1018.80 1019.62 1020.37 1020.72 1021.47 1021.70 1022.15 1022.19 1022.21 1022.41 1022.53 1022.75 1022.80 1022.88 1022.80 1022.59 1022.46 1022.43 1022.40 1022.35 1022.24 1021.96 1021.66 1021.30 1020.98 1020.61
1005.86 1006.81 1008.21 1010.38 1011.72 1011.87 1011.23 1008.30 1006.42 1006.47 1006.80 1007.01 1007.47 1008.49 1009.62 1010.54 1011.57 1012.65 1013.60 1014.80 1015.85 1016.70 1017.65 1018.40 1019.28 1020.08 1020.46 1021.12 1021.41 1021.90 1021.99 1022.13 1022.22 1022.31 1022.53 1022.56 1022.80 1022.67 1022.44 1022.31 1022.27 1022.23 1022.21 1022.17 1021.95 1021.60 1021.24 1020.90 1020.54
Wind_Speed
6 6 1 3 5 6 3 3 2 2 3 3 2 5 6 4 2 4 2 5 6 5 6 7 13 15 16 17 18 19 18 17 17 17 15 13 12 13 11 8 6 4 3 2 1 1 3 3 3
5 4 2 2 7 5 2 2 5 7 10 8 7 4 6 3 3 8 4 5 6 5 5 6 14 16 19 21 21 20 19 18 17 17 17 17 15 13 12 11 11 10 8 7 5 5 5 6 6
6 1 3 5 4 5 4 2 7 11 8 2 4 5 4 2 6 4 8 8 6 5 5 10 15 17 19 21 21 21 21 20 20 20 20 17 16 15 14 13 13 11 10 9 9 8 10 10 10
3 2 4 6 5 2 5 7 5 6 3 7 5 5 5 3 7 6 11 9 7 5 5 11 15 16 18 20 20 20 20 20 19 18 19 19 18 15 15 15 14 13 8 8 9 11 11 12 14
3 3 4 5 2 3 1 7 7 5 3 4 1 4 4 4 13 13 10 8 8 5 5 7 13 15 17 19 19 19 20 20 19 18 18 17 16 15 15 14 14 13 14 12 11 9 9 6 6
3 3 4 4 5 2 3 6 7 4 4 4 5 6 3 10 12 10 9 7 5 6 5 6 12 14 15 17 18 18 19 19 19 18 16 15 14 13 13 13 13 12 12 12 14 14 15 13 13
5 4 3 4 3 4 4 7 7 6 5 3 7 5 3 4 9 9 7 7 6 5 6 6 6 10 15 16 17 18 18 18 18 17 16 15 13 12 11 11 10 11 10 11 12 13 13 13 13
5 5 3 1 2 2 5 5 7 7 3 9 6 6 6 6 10 10 8 6 6 5 6 6 5 5 6 6 16 17 17 17 17 17 16 15 14 13 11 12 10 9 10 10 10 11 12 12 12
3 5 2 5 6 5 5 5 1 5 8 2 5 6 9 15 13 10 6 3 4 4 5 4 5 5 6 7 10 13 16 17 16 13 15 10 4 5 8 10 10 11 10 10 10 11 12 12 12
5 4 8 6 7 7 7 7 9 5 7 2 4 8 19 16 14 13 10 8 5 5 4 4 5 5 7 8 7 7 8 6 6 6 6 4 5 4 7 8 11 11 12 11 12 12 12 10 5
4 6 6 4 6 11 10 6 6 9 5 7 10 18 18 17 13 12 9 8 7 5 3 5 5 5 7 7 5 3 3 3 3 6 5 5 4 3 4 3 4 4 9 4 6 7 5 8 6
1 6 4 3 9 8 12 9 6 8 7 8 14 20 19 17 15 13 11 9 6 5 5 5 5 6 6 5 4 4 4 3 3 4 5 3 3 3 4 3 4 4 4 5 5 4 5 6 7
2 1 3 6 8 8 12 5 5 9 1 12 14 16 16 16 14 11 8 7 7 6 5 5 5 6 5 6 4 4 4 3 3 4 4 3 3 3 3 3 3 4 4 4 5 5 5 6 7
2 6 5 5 7 4 9 4 8 6 8 13 17 16 16 16 15 9 10 9 8 7 7 6 6 6 7 6 6 4 3 3 3 3 3 5 3 3 3 4 4 5 5 4 4 5 6 6 6
3 7 7 4 3 4 9 2 8 5 14 16 17 16 16 15 15 18 15 13 12 8 7 5 5 7 9 8 6 4 4 4 3 3 4 4 4 4 4 3 4 4 5 6 5 5 5 6 7
5 6 5 2 5 1 6 8 10 13 18 18 18 16 16 15 18 15 14 13 8 10 8 8 7 7 7 7 6 4 3 4 3 3 3 4 4 4 4 4 4 5 5 5 5 5 5 6 6
5 6 5 3 6 5 5 6 7 14 16 16 17 17 15 14 14 14 14 13 12 9 8 6 6 9 7 6 6 5 5 3 3 2 2 4 4 4 4 4 4 5 5 5 5 4 3 4 6
9 5 2 7 10 5 7 13 3 15 15 17 16 13 14 18 18 15 14 12 11 8 8 8 5 7 6 4 6 3 3 3 2 1 2 3 3 3 3 3 4 4 4 5 5 5 5 3 5
6 5 6 4 6 7 17 5 8 13 11 11 13 12 12 15 12 14 14 15 13 9 9 9 10 6 7 4 4 2 2 1 0 1 2 3 3 4 4 3 4 4 4 5 5 4 5 4 4
5 6 5 1 2 7 3 9 9 14 21 20 17 15 17 15 14 12 13 14 13 12 9 8 8 7 6 4 3 2 3 1 0 2 3 3 4 4 3 3 4 5 4 6 5 4 3 3 4
3 8 7 4 3 3 2 6 4 7 12 9 11 17 15 19 19 15 13 11 10 9 9 8 7 7 6 6 5 3 3 2 2 2 2 3 4 4 3 3 3 4 3 4 5 4 4 3 3
4 8 4 4 3 3 3 6 5 5 14 9 17 15 16 15 11 12 14 11 10 8 7 7 7 7 7 7 6 5 3 2 2 1 2 3 4 4 4 4 4 4 3 4 4 4 2 2 4
8 5 7 3 4 4 1 3 7 1 7 16 20 17 16 17 22 25 26 18 13 10 8 8 7 6 6 7 7 5 3 2 1 0 3 3 4 4 4 4 4 4 4 5 5 6 5 2 3
6 5 7 6 4 1 6 7 6 7 9 6 9 14 17 20 18 15 12 13 11 9 8 8 9 7 6 6 7 7 7 4 3 1 2 2 2 3 3 4 4 4 5 5 5 6 5 4 4
5 6 3 4 3 6 4 3 12 9 7 8 7 10 14 14 16 16 18 16 14 12 11 9 9 8 6 7 6 6 6 5 5 3 1 2 2 2 4 4 4 3 4 6 6 5 6 5 5
6 10 8 6 3 7 3 7 11 5 6 3 4 9 12 14 15 17 19 17 16 16 13 10 9 8 6 7 6 5 5 3 3 3 2 2 2 2 3 4 3 4 5 6 6 4 4 5 5
4 4 5 8 3 3 4 9 11 4 7 5 6 8 12 15 16 18 17 16 15 14 14 13 11 8 7 7 5 5 5 5 4 3 2 2 2 3 3 3 3 4 5 6 6 4 6 6 5
9 8 4 3 4 4 5 6 7 8 10 7 9 11 10 12 15 15 15 15 13 12 11 10 10 10 8 7 6 5 6 4 4 3 2 2 3 3 3 3 3 4 5 6 6 5 5 6 5
3 4 6 6 5 7 2 9 10 12 9 11 15 9 13 14 15 15 14 13 13 12 12 11 10 9 8 7 5 5 5 4 4 3 1 2 2 4 4 3 3 3 4 5 6 6 6 7 7
5 8 8 7 5 2 4 10 6 9 9 9 8 9 11 15 16 14 14 15 14 13 11 11 10 9 8 7 6 5 5 4 3 2 2 2 3 4 3 3 3 3 3 4 6 7 7 7 7
Wind_Direction
134 137 106 26 57 60 43 58 328 82 43 355 54 116 110 36 104 169 107 104 92 77 59 69 82 84 80 76 74 67 64 63 61 61 62 57 57 60 53 49 52 58 65 98 100 234 239 262 262
133 126 21 74 82 70 297 283 68 88 139 130 85 78 63 61 73 111 104 96 95 96 76 92 90 88 85 82 78 72 67 66 66 60 59 57 57 55 53 48 43 39 33 18 358 333 299 294 294
135 56 80 91 106 139 155 124 116 145 155 44 85 48 81 96 75 109 115 116 102 94 94 101 99 97 94 87 80 75 71 68 69 60 58 53 61 60 59 53 45 35 24 14 2 349 338 330 308
127 15 33 79 102 207 148 153 131 121 92 52 107 65 68 203 145 118 120 118 108 101 108 110 108 104 96 92 87 82 76 73 70 66 62 57 53 55 51 48 42 28 27 23 7 2 3 1 351
46 53 66 88 81 147 146 142 142 143 99 117 142 108 74 52 105 115 121 124 123 118 102 102 111 101 96 90 85 79 74 71 67 62 57 55 52 54 48 44 37 35 31 23 10 6 355 355 342
44 97 65 130 130 166 139 142 138 109 110 133 100 99 77 130 119 129 126 120 104 116 100 95 103 96 94 87 81 76 72 70 68 62 56 53 48 46 44 42 40 41 42 38 40 34 31 39 47
118 93 143 121 100 130 181 145 148 127 124 132 154 91 101 143 131 123 111 100 100 92 87 72 60 101 95 86 82 79 74 70 66 60 55 50 49 41 47 41 45 46 47 44 37 32 30 29 30
101 88 80 88 144 107 137 125 132 110 184 128 145 158 177 169 127 111 89 92 105 107 104 94 84 85 83 83 85 79 74 68 64 59 51 48 40 40 38 43 41 45 53 39 32 28 25 22 18
124 60 129 188 151 143 155 115 98 125 130 198 171 146 139 134 123 112 109 97 108 118 114 130 138 122 100 81 76 70 71 68 60 50 51 42 29 37 22 45 36 41 32 30 25 19 12 13 7
96 113 210 189 167 147 155 125 148 114 151 271 53 101 128 137 143 145 162 166 170 161 170 176 161 123 96 95 82 73 77 67 59 50 36 32 23 38 50 39 40 29 30 21 18 13 9 3 351
170 193 191 219 172 139 139 128 149 123 212 191 170 148 144 149 156 160 171 178 172 174 190 199 178 119 104 110 104 91 88 78 67 60 40 29 28 19 20 17 18 14 24 17 10 3 2 349 344
164 238 150 214 144 128 152 132 156 169 206 154 160 160 154 158 165 170 174 172 169 167 170 165 139 106 98 106 106 111 102 84 68 58 40 40 40 26 15 16 9 11 3 1 3 358 346 345 335
227 117 74 105 127 107 123 143 166 212 119 130 139 157 161 168 169 173 168 156 153 153 142 128 115 119 120 114 113 99 89 97 105 78 58 51 42 30 6 12 11 8 354 358 351 351 347 340 333
180 75 82 83 119 108 118 134 142 217 143 139 152 167 173 173 170 154 160 164 162 157 155 148 144 134 120 120 118 123 121 109 81 71 66 63 63 42 24 6 3 3 357 351 348 341 335 328 328
145 86 66 60 149 147 104 101 226 159 160 162 173 171 176 177 167 177 171 169 174 166 136 136 127 135 135 128 132 123 114 92 64 68 58 63 62 48 25 4 358 351 346 351 353 346 340 335 333
64 54 94 226 141 124 117 256 212 166 167 183 179 181 183 178 178 175 168 169 151 149 149 161 128 119 129 134 123 115 99 91 73 50 44 49 47 47 29 6 353 342 349 348 348 341 330 334 332
37 162 131 152 211 143 156 256 244 174 185 187 191 185 175 178 180 178 170 161 152 133 152 101 115 129 123 132 113 111 107 86 71 46 33 30 32 33 30 358 337 346 346 350 345 330 317 319 329
187 136 158 168 202 179 187 245 208 183 190 200 201 189 176 178 184 171 156 144 130 135 123 124 122 124 124 120 105 82 88 83 90 75 35 33 12 14 14 342 340 343 338 341 345 330 323 295 304
131 128 163 236 196 143 219 237 202 199 203 209 208 196 187 184 171 159 152 145 138 136 143 142 137 148 144 148 100 89 117 82 115 95 339 353 348 360 0 344 336 343 339 322 323 318 324 313 324
143 148 222 281 126 162 179 250 214 198 213 207 194 198 190 172 163 157 149 151 156 152 145 142 147 161 164 142 125 137 143 163 316 322 330 348 354 349 339 330 329 334 329 336 335 350 324 295 334
207 176 191 182 132 8 179 263 210 231 231 212 209 212 190 179 170 160 158 158 144 147 149 151 155 165 163 138 117 85 73 52 31 2 321 359 344 348 355 328 308 310 322 323 323 323 339 318 308
178 222 155 166 118 226 55 273 282 241 233 221 220 201 191 176 161 153 158 171 160 156 144 134 161 162 146 139 121 123 150 165 196 215 282 351 356 343 340 344 331 321 328 322 323 333 306 315 310
211 137 184 164 106 79 358 86 266 286 258 236 230 206 186 176 171 175 185 164 157 150 153 159 162 150 136 134 125 130 147 196 169 170 31 2 336 333 336 343 336 343 338 327 333 333 332 304 295
134 93 40 45 92 117 215 156 251 210 216 257 222 204 184 182 176 172 155 146 150 151 159 165 159 149 145 136 133 155 162 171 122 88 50 355 315 311 339 338 347 340 335 331 324 322 323 324 299
103 80 337 343 8 213 125 121 247 260 234 227 225 199 183 169 164 162 160 162 160 167 172 167 159 152 159 137 146 173 166 169 144 134 124 309 311 318 330 337 340 346 329 326 325 321 327 329 318
181 151 159 224 219 278 122 227 255 267 256 174 179 146 150 156 166 169 172 166 167 172 171 168 171 144 177 136 169 179 176 162 149 144 183 253 264 280 295 316 329 333 340 340 336 323 318 327 314
191 155 195 107 45 59 228 289 310 260 259 206 164 150 164 167 170 171 171 172 170 171 171 172 172 152 179 149 171 181 185 159 168 165 184 263 289 296 329 325 339 341 345 342 338 327 319 326 315
159 167 96 6 158 226 282 273 242 279 253 221 214 183 173 164 165 170 176 174 169 169 167 166 165 175 171 165 180 178 187 169 159 160 201 264 295 294 328 323 346 348 346 345 344 334 319 325 321
145 169 56 113 133 173 216 257 218 239 238 218 231 171 169 170 171 171 173 170 165 167 166 165 167 167 157 183 171 179 188 181 166 169 182 252 286 297 308 312 330 342 346 344 339 333 322 330 324
169 168 145 126 228 178 176 269 242 250 244 215 223 167 165 167 171 171 162 162 166 168 167 168 166 177 173 179 163 189 186 175 157 162 232 260 284 294 297 304 308 319 339 344 342 334 331 330 327